Location: Burland Observatory
(39.4088°N, 105.4217°W)
Time: 20:22:09
(UTC-07:00)

Vanguard 3 - Pass Details

Date: 08 December 2019
Orbit: 507 x 3264 km, 33.4° (Epoch: 27 January)

Event Time Altitude Azimuth Distance (km) Brightness Sun altitude
Rises 09:55:56 0° 256° (WSW) 4,450 10.8 22.1°
Reaches altitude 10° 09:58:25 10° 253° (WSW) 3,761 10.5 22.3°
Maximum altitude 10:08:52 68° 173° (S) 2,417 10.3 23.2°
Drops below altitude 10° 10:26:29 10° 97° (E) 6,003 12.0 24.6°
Sets 10:31:37 0° 95° (E) 7,174 12.3 25.0°
